TimeCDT,TemperatureF,Dew PointF,Humidity,Sea Level PressureIn,VisibilityMPH,Wind Direction,Wind SpeedMPH,Gust SpeedMPH,PrecipitationIn,Events,Conditions,WindDirDegrees,DateUTC
12:53 AM,66.2,57.2,73,30.03,10.0,SSE,4.6,-,N/A,,Clear,160,2012-10-23 05:53:00
1:53 AM,64.4,57.2,77,30.03,10.0,South,5.8,-,N/A,,Clear,180,2012-10-23 06:53:00
2:53 AM,63.0,57.9,84,30.03,10.0,South,3.5,-,N/A,,Clear,180,2012-10-23 07:53:00
3:53 AM,60.1,57.9,93,30.04,10.0,Calm,Calm,-,N/A,,Clear,0,2012-10-23 08:53:00
4:35 AM,59.0,57.2,94,30.05,1.8,Calm,Calm,-,N/A,,Clear,0,2012-10-23 09:35:00
4:45 AM,59.0,57.2,94,30.05,0.8,Calm,Calm,-,N/A,,Clear,0,2012-10-23 09:45:00
4:51 AM,57.2,57.2,100,30.05,2.0,Calm,Calm,-,N/A,,Clear,0,2012-10-23 09:51:00
5:00 AM,57.2,57.2,100,30.05,3.0,Calm,Calm,-,N/A,,Clear,0,2012-10-23 10:00:00
5:04 AM,57.2,55.4,94,30.06,1.8,Calm,Calm,-,N/A,,Clear,0,2012-10-23 10:04:00
5:15 AM,57.2,57.2,100,30.06,0.5,Calm,Calm,-,N/A,Fog,Fog,0,2012-10-23 10:15:00
5:28 AM,57.2,55.4,94,30.06,1.2,Calm,Calm,-,N/A,,Clear,0,2012-10-23 10:28:00
5:48 AM,57.2,55.4,94,30.06,1.0,Calm,Calm,-,N/A,,Mist,0,2012-10-23 10:48:00
5:49 AM,57.2,55.4,94,30.06,6.0,Calm,Calm,-,N/A,,Scattered Clouds,0,2012-10-23 10:49:00
5:53 AM,55.0,54.0,96,30.06,6.0,Calm,Calm,-,N/A,,Scattered Clouds,0,2012-10-23 10:53:00
6:00 AM,55.4,55.4,100,30.07,1.0,Calm,Calm,-,N/A,,Mist,0,2012-10-23 11:00:00
6:03 AM,55.4,55.4,100,30.07,4.0,Calm,Calm,-,N/A,,Mostly Cloudy,0,2012-10-23 11:03:00
6:49 AM,62.6,60.8,94,30.08,2.5,Variable,4.6,-,N/A,,Overcast,0,2012-10-23 11:49:00
6:50 AM,63.0,61.0,93,30.08,2.0,Variable,4.6,-,N/A,,Overcast,0,2012-10-23 11:50:00
6:58 AM,62.6,62.6,100,30.08,1.2,SSE,4.6,-,N/A,,Overcast,160,2012-10-23 11:58:00
7:09 AM,62.6,62.6,100,30.08,0.5,Variable,3.5,-,N/A,Fog,Fog,0,2012-10-23 12:09:00
7:53 AM,63.0,62.1,97,30.09,0.2,Calm,Calm,-,N/A,Fog,Fog,0,2012-10-23 12:53:00
8:40 AM,64.4,62.6,94,30.10,0.5,SSE,6.9,-,N/A,Fog,Fog,160,2012-10-23 13:40:00
8:53 AM,64.9,63.0,93,30.10,0.5,SSE,5.8,-,N/A,Fog,Fog,160,2012-10-23 13:53:00
9:27 AM,64.4,64.4,100,30.11,1.8,Variable,4.6,-,N/A,,Overcast,0,2012-10-23 14:27:00
9:53 AM,64.9,64.0,97,30.11,2.0,South,5.8,-,N/A,,Overcast,180,2012-10-23 14:53:00
10:00 AM,66.2,64.4,94,30.11,4.0,SSE,6.9,-,N/A,,Overcast,160,2012-10-23 15:00:00
10:32 AM,66.2,64.4,94,30.11,5.0,SSE,8.1,-,N/A,,Overcast,160,2012-10-23 15:32:00
10:53 AM,66.9,64.9,93,30.11,7.0,South,5.8,-,N/A,,Overcast,170,2012-10-23 15:53:00
11:31 AM,71.6,64.4,78,30.10,6.0,South,5.8,-,N/A,,Haze,180,2012-10-23 16:31:00
11:53 AM,73.0,64.9,76,30.09,10.0,Variable,4.6,-,N/A,,Overcast,0,2012-10-23 16:53:00
12:29 PM,75.2,64.4,69,30.08,10.0,SSE,4.6,-,N/A,,Scattered Clouds,160,2012-10-23 17:29:00
12:36 PM,75.2,64.4,69,30.08,10.0,SW,4.6,-,N/A,,Overcast,230,2012-10-23 17:36:00
12:53 PM,75.9,64.9,69,30.06,10.0,SSW,6.9,-,N/A,,Overcast,200,2012-10-23 17:53:00
1:53 PM,78.1,64.0,62,30.04,10.0,Variable,4.6,-,N/A,,Scattered Clouds,0,2012-10-23 18:53:00
2:53 PM,79.0,63.0,58,30.01,10.0,SSW,4.6,-,N/A,,Scattered Clouds,210,2012-10-23 19:53:00
3:53 PM,81.0,61.0,50,30.01,10.0,SW,4.6,-,N/A,,Clear,220,2012-10-23 20:53:00
4:53 PM,81.0,61.0,50,30.00,10.0,South,4.6,-,N/A,,Clear,180,2012-10-23 21:53:00
5:53 PM,78.8,64.4,61,29.99,10.0,Calm,Calm,-,N/A,,Clear,0,2012-10-23 22:53:00
6:53 PM,68.0,63.0,84,30.01,10.0,Calm,Calm,-,N/A,,Clear,0,2012-10-23 23:53:00
7:53 PM,64.9,62.1,90,30.01,10.0,Calm,Calm,-,N/A,,Clear,0,2012-10-24 00:53:00
8:53 PM,64.0,62.1,93,30.02,9.0,Calm,Calm,-,N/A,,Clear,0,2012-10-24 01:53:00
9:53 PM,64.0,61.0,90,30.03,10.0,Calm,Calm,-,N/A,,Clear,0,2012-10-24 02:53:00
10:53 PM,66.0,61.0,84,30.02,10.0,Calm,Calm,-,N/A,,Clear,0,2012-10-24 03:53:00
11:53 PM,66.9,61.0,81,30.02,10.0,Calm,Calm,-,N/A,,Clear,0,2012-10-24 04:53:00